Springfield, VT

3:44 PM EST on January 19, 2018 (GMT -0500)
Hartness State

Weather History for KVSF - January, 2013

Change the Weather History Date:

Friday, January 25, 2013

  Actual Average Record
Temperature  
Mean Temperature 8 °F 19 °F  
Max Temperature 15 °F 29 °F 37 °F (1997)
Min Temperature 1 °F 9 °F -11 °F (2004)
Degree Days  
Heating Degree Days 57 46  
Month to date heating degree days 1067 1139  
Since 1 July heating degree days 3473 4002  
Cooling Degree Days 0 0  
Month to date cooling degree days 0  
Year to date cooling degree days 0  
Moisture  
Dew Point -10 °F    
Average Humidity 42    
Maximum Humidity 57    
Minimum Humidity 27    
Precipitation  
Precipitation T in 0.07 in 0.26 in (1997)
Month to date precipitation 0.37 2.41  
Year to date precipitation 0.37 2.41  
Sea Level Pressure  
Sea Level Pressure 30.25 in    
Wind  
Wind Speed 5 mph (NW)    
Max Wind Speed 13 mph    
Max Gust Speed 18 mph    
Visibility 10 miles    
Events Snow    
T = Trace of Precipitation, MM = Missing Value Source: NWS Daily Summary

Daily Weather History Graph

Daily Weather History Graph

Search for Another Location

Airport or City:

Trip Planner

Search our weather history database for the weather conditions in past years. The results will help you decide how hot, cold, wet, or windy it might be!

Date:

Astronomy

Jan. 25, 2013 Rise Set
Actual Time 7:12 AM EST 4:52 PM EST
Civil Twilight 6:41 AM EST 5:23 PM EST
Nautical Twilight 6:07 AM EST 5:58 PM EST
Astronomical Twilight 5:33 AM EST 6:32 PM EST
Moon 3:47 PM EST (1/25) 5:50 AM EST (1/25)
Length of Visible Light 10h 42m
Length of Day
9h 40m
Waxing Gibbous, 98% of the Moon is Illuminated
Jan 25
Waxing Gibbous
Jan 26
Full
Feb 3
Last Quarter
Feb 10
New
Feb 17
First Quarter

Hourly Weather History & Observations

Time (EST) Temp. Windchill Dew Point Humidity Pressure Visibility Wind Dir Wind Speed Gust Speed Precip Events Conditions
12:54 AM 5.0 °F -9.1 °F -13.0 °F 43% 30.31 in 10.0 mi NNW 9.2 mph 20.7 mph N/A   Clear
1:54 AM 3.9 °F -8.2 °F -13.0 °F 46% 30.32 in 10.0 mi WSW 6.9 mph - N/A   Clear
2:54 AM 3.9 °F -5.3 °F -13.0 °F 46% 30.33 in 10.0 mi Variable 4.6 mph - N/A   Clear
3:54 AM 3.0 °F -6.4 °F -11.9 °F 50% 30.32 in 10.0 mi West 4.6 mph - N/A   Clear
4:54 AM 1.9 °F -11.8 °F -11.9 °F 52% 30.32 in 10.0 mi WNW 8.1 mph - N/A   Clear
5:54 AM 1.9 °F -11.8 °F -11.9 °F 52% 30.34 in 10.0 mi NNW 8.1 mph - N/A   Clear
6:54 AM 1.9 °F -9.2 °F -11.9 °F 52% 30.34 in 10.0 mi Variable 5.8 mph - N/A   Clear
7:54 AM 1.9 °F -9.2 °F -11.9 °F 52% 30.36 in 10.0 mi North 5.8 mph - N/A   Clear
8:54 AM 3.0 °F -11.5 °F -11.9 °F 50% 30.36 in 10.0 mi NNW 9.2 mph - N/A   Clear
9:54 AM 6.1 °F -9.5 °F -11.9 °F 44% 30.34 in 10.0 mi NNW 11.5 mph - N/A   Clear
10:54 AM 9.0 °F - -11.0 °F 40% 30.32 in 10.0 mi Calm Calm - N/A   Clear
11:54 AM 10.0 °F -1.9 °F -9.9 °F 40% 30.29 in 10.0 mi West 8.1 mph - N/A   Clear
12:54 PM 12.9 °F 2.6 °F -11.9 °F 32% 30.25 in 10.0 mi WNW 6.9 mph - N/A   Clear
2:54 PM 15.1 °F 6.4 °F -11.9 °F 29% 30.20 in 10.0 mi WNW 5.8 mph - N/A   Clear
3:54 PM 15.1 °F 7.7 °F -13.0 °F 28% 30.19 in 10.0 mi WNW 4.6 mph - N/A   Partly Cloudy
4:54 PM 15.1 °F 9.4 °F -11.9 °F 29% 30.19 in 10.0 mi North 3.5 mph - N/A   Partly Cloudy
5:54 PM 14.0 °F - -9.9 °F 34% 30.16 in 10.0 mi Calm Calm - N/A   Mostly Cloudy
6:54 PM 12.9 °F - -7.1 °F 41% 30.15 in 10.0 mi Calm Calm - N/A   Overcast
7:54 PM 12.9 °F - -9.0 °F 37% 30.13 in 10.0 mi Calm Calm - N/A   Overcast
8:54 PM 12.9 °F - -6.0 °F 43% 30.12 in 10.0 mi Calm Calm - N/A   Overcast
9:54 PM 12.9 °F - -5.1 °F 45% 30.11 in 10.0 mi Calm Calm - N/A   Overcast
10:54 PM 12.0 °F 5.9 °F -0.0 °F 59% 30.10 in 7.0 mi NNW 3.5 mph - 0.00 in Snow Light Snow
11:54 PM 10.9 °F - 3.9 °F 73% 30.09 in 4.0 mi Calm Calm - 0.00 in Snow Light Snow